Back to catalog

STARLINK-35240

AliveCommunicationsSSO
NORAD 65655·PAYLOAD·🇺🇸 United States

Launched Sep 19, 2025 from Vandenberg Space Force Base

Loading…

Next Passes (next 24 hours)

TLE

FreshSource: CelesTrak SupGP

Epoch: Sep 14, 2026, 23:14 UTC

1 65655C 25211D   26257.96854167  .00052644  00000+0  16343-2 0  2572
2 65655  97.2841 298.2634 0000972  99.3298 288.1641 15.33411933    16

Track STARLINK-35240 in real time with AllMySat

Download on the App Store